Time,TemperatureF,DewpointF,PressureIn,WindDirection,WindDirectionDegrees,WindSpeedMPH,WindSpeedGustMPH,Humidity,HourlyPrecipIn,Conditions,Clouds,dailyrainin,SoftwareType,DateUTC
2013-01-02 00:00:00,43.5,42.0,30.04,NNW,336,1.0,-999.0,94,-99.99,,,1.13,weatherlink.com 1.10,2013-01-02 06:00:00,
2013-01-02 00:15:00,43.1,42.0,30.05,NNW,339,0.0,-999.0,95,-99.99,,,1.13,weatherlink.com 1.10,2013-01-02 06:15:00,
2013-01-02 00:30:00,42.9,42.0,30.04,North,355,1.0,-999.0,95,-99.99,,,1.13,weatherlink.com 1.10,2013-01-02 06:30:00,
2013-01-02 00:45:00,42.8,42.0,30.05,NE,37,2.0,-999.0,95,-99.99,,,1.13,weatherlink.com 1.10,2013-01-02 06:45:00,
2013-01-02 01:00:00,42.4,41.0,30.05,NNE,32,0.0,-999.0,94,-99.99,,,1.13,weatherlink.com 1.10,2013-01-02 07:00:00,
2013-01-02 01:15:00,42.3,41.0,30.06,North,360,0.0,-999.0,93,-99.99,,,0.00,weatherlink.com 1.10,2013-01-02 07:15:00,
2013-01-02 01:30:00,42.0,40.0,30.05,North,360,1.0,-999.0,93,-99.99,,,0.00,weatherlink.com 1.10,2013-01-02 07:30:00,
2013-01-02 01:45:00,41.6,40.0,30.06,NNE,31,0.0,-999.0,93,-99.99,,,0.00,weatherlink.com 1.10,2013-01-02 07:45:00,
2013-01-02 02:00:00,41.5,40.0,30.07,NNW,342,1.0,-999.0,93,-99.99,,,0.00,weatherlink.com 1.10,2013-01-02 08:00:00,
2013-01-02 02:15:00,41.3,40.0,30.07,WNW,300,0.0,-999.0,93,-99.99,,,0.00,weatherlink.com 1.10,2013-01-02 08:15:00,
2013-01-02 02:30:00,41.2,39.0,30.07,NW,315,0.0,-999.0,93,-99.99,,,0.00,weatherlink.com 1.10,2013-01-02 08:30:00,
2013-01-02 02:45:00,41.0,39.0,30.06,NW,316,0.0,-999.0,93,-99.99,,,0.00,weatherlink.com 1.10,2013-01-02 08:45:00,
2013-01-02 03:00:00,40.9,39.0,30.07,NNE,19,0.0,-999.0,93,-99.99,,,0.00,weatherlink.com 1.10,2013-01-02 09:00:00,
2013-01-02 03:15:00,40.7,39.0,30.07,NW,321,0.0,-999.0,93,-99.99,,,0.00,weatherlink.com 1.10,2013-01-02 09:15:00,
2013-01-02 03:30:00,40.6,39.0,30.07,NNW,329,0.0,-999.0,94,-99.99,,,0.00,weatherlink.com 1.10,2013-01-02 09:30:00,
2013-01-02 03:45:00,40.5,39.0,30.07,WNW,295,0.0,-999.0,94,-99.99,,,0.00,weatherlink.com 1.10,2013-01-02 09:45:00,
2013-01-02 04:00:00,40.5,39.0,30.07,NNW,343,0.0,-999.0,93,-99.99,,,0.00,weatherlink.com 1.10,2013-01-02 10:00:00,
2013-01-02 04:15:00,40.4,39.0,30.08,NNW,336,1.0,-999.0,93,-99.99,,,0.00,weatherlink.com 1.10,2013-01-02 10:15:00,
2013-01-02 04:33:00,40.4,38.0,30.08,North,360,2.0,-999.0,92,-99.99,,,0.00,weatherlink.com 1.10,2013-01-02 10:33:00,
2013-01-02 04:45:00,40.3,38.0,30.09,NNW,327,1.0,-999.0,92,-99.99,,,0.00,weatherlink.com 1.10,2013-01-02 10:45:00,
2013-01-02 05:00:00,40.2,38.0,30.09,NNW,327,0.0,-999.0,92,-99.99,,,0.00,weatherlink.com 1.10,2013-01-02 11:00:00,
2013-01-02 05:15:00,39.9,38.0,30.09,NW,323,0.0,-999.0,92,-99.99,,,0.00,weatherlink.com 1.10,2013-01-02 11:15:00,
2013-01-02 05:30:00,39.6,38.0,30.09,NNW,336,1.0,-999.0,92,-99.99,,,0.00,weatherlink.com 1.10,2013-01-02 11:30:00,
2013-01-02 05:45:00,39.5,37.0,30.10,NW,308,0.0,-999.0,92,-99.99,,,0.00,weatherlink.com 1.10,2013-01-02 11:45:00,
2013-01-02 06:00:00,39.4,37.0,30.11,NNW,346,0.0,-999.0,92,-99.99,,,0.00,weatherlink.com 1.10,2013-01-02 12:00:00,
2013-01-02 06:15:00,39.2,37.0,30.11,North,350,1.0,-999.0,92,-99.99,,,0.00,weatherlink.com 1.10,2013-01-02 12:15:00,
2013-01-02 06:30:00,39.0,37.0,30.11,NNW,343,1.0,-999.0,92,-99.99,,,0.00,weatherlink.com 1.10,2013-01-02 12:30:00,
2013-01-02 06:46:00,38.8,37.0,30.13,WNW,291,2.0,-999.0,92,-99.99,,,0.00,weatherlink.com 1.10,2013-01-02 12:46:00,
2013-01-02 07:01:00,38.6,37.0,30.12,NNW,342,0.0,-999.0,92,-99.99,,,0.00,weatherlink.com 1.10,2013-01-02 13:01:00,
2013-01-02 07:16:00,38.4,36.0,30.14,NNW,331,1.0,-999.0,92,-99.99,,,0.00,weatherlink.com 1.10,2013-01-02 13:16:00,
2013-01-02 07:31:00,38.3,36.0,30.13,NNW,335,1.0,-999.0,92,-99.99,,,0.00,weatherlink.com 1.10,2013-01-02 13:31:00,
2013-01-02 07:46:00,38.3,37.0,30.14,NW,306,1.0,-999.0,93,-99.99,,,0.00,weatherlink.com 1.10,2013-01-02 13:46:00,
2013-01-02 08:01:00,38.3,37.0,30.15,NNE,28,0.0,-999.0,93,-99.99,,,0.00,weatherlink.com 1.10,2013-01-02 14:01:00,
2013-01-02 08:16:00,38.4,36.0,30.14,ENE,59,4.0,-999.0,91,-99.99,,,0.00,weatherlink.com 1.10,2013-01-02 14:16:00,
2013-01-02 08:31:00,38.6,36.0,30.15,North,5,1.0,-999.0,90,-99.99,,,0.00,weatherlink.com 1.10,2013-01-02 14:31:00,
2013-01-02 08:46:00,38.7,36.0,30.16,NW,323,0.0,-999.0,90,-99.99,,,0.00,weatherlink.com 1.10,2013-01-02 14:46:00,
2013-01-02 09:01:00,38.7,36.0,30.17,NW,306,0.0,-999.0,89,-99.99,,,0.00,weatherlink.com 1.10,2013-01-02 15:01:00,
2013-01-02 09:16:00,38.8,36.0,30.16,NNE,17,1.0,-999.0,89,-99.99,,,0.00,weatherlink.com 1.10,2013-01-02 15:16:00,
2013-01-02 09:31:00,38.8,36.0,30.18,NNW,347,2.0,-999.0,89,-99.99,,,0.00,weatherlink.com 1.10,2013-01-02 15:31:00,
2013-01-02 09:46:00,39.0,36.0,30.19,NNW,341,0.0,-999.0,89,-99.99,,,0.00,weatherlink.com 1.10,2013-01-02 15:46:00,
2013-01-02 10:01:00,39.0,36.0,30.19,WNW,293,1.0,-999.0,89,-99.99,,,0.00,weatherlink.com 1.10,2013-01-02 16:01:00,
2013-01-02 10:16:00,39.1,36.0,30.18,NNW,340,2.0,-999.0,89,-99.99,,,0.00,weatherlink.com 1.10,2013-01-02 16:16:00,
2013-01-02 10:31:00,39.1,36.0,30.18,NNW,341,0.0,-999.0,89,-99.99,,,0.00,weatherlink.com 1.10,2013-01-02 16:31:00,
2013-01-02 10:46:00,39.3,36.0,30.18,NNW,347,1.0,-999.0,89,-99.99,,,0.00,weatherlink.com 1.10,2013-01-02 16:46:00,
2013-01-02 11:01:00,39.4,37.0,30.17,NNW,347,1.0,-999.0,89,-99.99,,,0.00,weatherlink.com 1.10,2013-01-02 17:01:00,
2013-01-02 11:16:00,39.6,37.0,30.16,NNW,347,1.0,-999.0,89,-99.99,,,0.00,weatherlink.com 1.10,2013-01-02 17:16:00,
2013-01-02 11:31:00,39.8,37.0,30.15,NE,54,4.0,-999.0,88,-99.99,,,0.00,weatherlink.com 1.10,2013-01-02 17:31:00,
2013-01-02 11:46:00,39.8,37.0,30.15,NE,43,0.0,-999.0,88,-99.99,,,0.00,weatherlink.com 1.10,2013-01-02 17:46:00,
2013-01-02 12:01:00,40.0,37.0,30.13,NE,35,1.0,-999.0,88,-99.99,,,0.00,weatherlink.com 1.10,2013-01-02 18:01:00,
2013-01-02 12:16:00,40.0,37.0,30.14,NNE,30,0.0,-999.0,87,-99.99,,,0.00,weatherlink.com 1.10,2013-01-02 18:16:00,
2013-01-02 12:31:00,40.0,37.0,30.13,NNE,25,0.0,-999.0,87,-99.99,,,0.00,weatherlink.com 1.10,2013-01-02 18:31:00,
2013-01-02 12:46:00,40.0,37.0,30.12,NNE,31,3.0,-999.0,87,-99.99,,,0.00,weatherlink.com 1.10,2013-01-02 18:46:00,
2013-01-02 13:01:00,40.0,37.0,30.12,NNE,28,0.0,-999.0,87,-99.99,,,0.00,weatherlink.com 1.10,2013-01-02 19:01:00,
2013-01-02 13:16:00,40.2,36.0,30.12,NE,37,1.0,-999.0,86,-99.99,,,0.00,weatherlink.com 1.10,2013-01-02 19:16:00,
2013-01-02 13:31:00,40.3,37.0,30.13,NE,37,0.0,-999.0,86,-99.99,,,0.00,weatherlink.com 1.10,2013-01-02 19:31:00,
2013-01-02 13:46:00,40.2,36.0,30.12,NE,37,0.0,-999.0,86,-99.99,,,0.00,weatherlink.com 1.10,2013-01-02 19:46:00,
2013-01-02 14:01:00,40.1,36.0,30.13,NE,37,0.0,-999.0,86,-99.99,,,0.00,weatherlink.com 1.10,2013-01-02 20:01:00,
2013-01-02 14:16:00,40.1,36.0,30.14,NE,37,0.0,-999.0,86,-99.99,,,0.00,weatherlink.com 1.10,2013-01-02 20:16:00,
2013-01-02 14:31:00,40.2,37.0,30.14,NE,37,0.0,-999.0,87,-99.99,,,0.00,weatherlink.com 1.10,2013-01-02 20:31:00,
2013-01-02 14:46:00,40.0,37.0,30.14,North,355,0.0,-999.0,87,-99.99,,,0.00,weatherlink.com 1.10,2013-01-02 20:46:00,
2013-01-02 15:01:00,40.0,36.0,30.14,NNE,13,0.0,-999.0,86,-99.99,,,0.00,weatherlink.com 1.10,2013-01-02 21:01:00,
2013-01-02 15:16:00,40.1,37.0,30.14,NNE,28,3.0,-999.0,87,-99.99,,,0.00,weatherlink.com 1.10,2013-01-02 21:16:00,
2013-01-02 15:31:00,40.0,37.0,30.14,North,350,0.0,-999.0,87,-99.99,,,0.00,weatherlink.com 1.10,2013-01-02 21:31:00,
2013-01-02 15:46:00,39.6,36.0,30.13,NNW,331,0.0,-999.0,87,-99.99,,,0.00,weatherlink.com 1.10,2013-01-02 21:46:00,
2013-01-02 16:01:00,39.2,36.0,30.12,NNW,331,2.0,-999.0,88,-99.99,,,0.00,weatherlink.com 1.10,2013-01-02 22:01:00,
2013-01-02 16:16:00,38.8,36.0,30.14,NW,326,1.0,-999.0,89,-99.99,,,0.00,weatherlink.com 1.10,2013-01-02 22:16:00,
2013-01-02 16:31:00,38.6,36.0,30.14,NNW,331,1.0,-999.0,89,-99.99,,,0.00,weatherlink.com 1.10,2013-01-02 22:31:00,
2013-01-02 16:46:00,38.4,36.0,30.16,NW,313,0.0,-999.0,90,-99.99,,,0.00,weatherlink.com 1.10,2013-01-02 22:46:00,
2013-01-02 17:01:00,38.3,36.0,30.15,NW,323,0.0,-999.0,90,-99.99,,,0.00,weatherlink.com 1.10,2013-01-02 23:01:00,
2013-01-02 17:16:00,38.1,36.0,30.17,WNW,285,1.0,-999.0,90,-99.99,,,0.00,weatherlink.com 1.10,2013-01-02 23:16:00,
2013-01-02 17:31:00,38.0,35.0,30.15,NNW,333,0.0,-999.0,90,-99.99,,,0.00,weatherlink.com 1.10,2013-01-02 23:31:00,
2013-01-02 17:46:00,38.0,36.0,30.18,NNE,21,0.0,-999.0,91,-99.99,,,0.00,weatherlink.com 1.10,2013-01-02 23:46:00,
2013-01-02 18:01:00,37.9,36.0,30.18,North,11,0.0,-999.0,91,-99.99,,,0.00,weatherlink.com 1.10,2013-01-03 00:01:00,
2013-01-02 18:16:00,37.9,36.0,30.19,North,11,0.0,-999.0,91,-99.99,,,0.00,weatherlink.com 1.10,2013-01-03 00:16:00,
2013-01-02 18:31:00,37.9,36.0,30.20,North,11,0.0,-999.0,91,-99.99,,,0.00,weatherlink.com 1.10,2013-01-03 00:31:00,
2013-01-02 18:46:00,37.8,36.0,30.20,WNW,300,0.0,-999.0,91,-99.99,,,0.00,weatherlink.com 1.10,2013-01-03 00:46:00,
2013-01-02 19:01:00,37.8,36.0,30.20,NW,309,0.0,-999.0,91,-99.99,,,0.00,weatherlink.com 1.10,2013-01-03 01:01:00,
2013-01-02 19:16:00,37.8,36.0,30.21,NW,309,0.0,-999.0,91,-99.99,,,0.00,weatherlink.com 1.10,2013-01-03 01:16:00,
2013-01-02 19:31:00,37.8,36.0,30.20,NW,306,0.0,-999.0,91,-99.99,,,0.00,weatherlink.com 1.10,2013-01-03 01:31:00,
2013-01-02 19:46:00,37.7,35.0,30.20,NW,306,0.0,-999.0,91,-99.99,,,0.00,weatherlink.com 1.10,2013-01-03 01:46:00,
2013-01-02 20:01:00,37.6,35.0,30.20,NW,306,0.0,-999.0,91,-99.99,,,0.00,weatherlink.com 1.10,2013-01-03 02:01:00,
2013-01-02 20:16:00,37.5,35.0,30.20,NW,306,0.0,-999.0,92,-99.99,,,0.00,weatherlink.com 1.10,2013-01-03 02:16:00,
2013-01-02 20:31:00,37.5,35.0,30.18,SE,138,2.0,-999.0,92,-99.99,,,0.00,weatherlink.com 1.10,2013-01-03 02:31:00,
2013-01-02 20:46:00,37.5,35.0,30.18,SE,136,0.0,-999.0,92,-99.99,,,0.00,weatherlink.com 1.10,2013-01-03 02:46:00,
2013-01-02 21:01:00,37.3,35.0,30.18,SE,136,1.0,-999.0,92,-99.99,,,0.00,weatherlink.com 1.10,2013-01-03 03:01:00,
2013-01-02 21:16:00,37.4,36.0,30.18,SE,136,0.0,-999.0,93,-99.99,,,0.00,weatherlink.com 1.10,2013-01-03 03:16:00,
2013-01-02 21:31:00,37.3,36.0,30.20,SE,136,0.0,-999.0,93,-99.99,,,0.00,weatherlink.com 1.10,2013-01-03 03:31:00,
2013-01-02 21:46:00,37.3,36.0,30.20,West,271,0.0,-999.0,93,-99.99,,,0.00,weatherlink.com 1.10,2013-01-03 03:46:00,
2013-01-02 22:01:00,37.3,35.0,30.20,West,271,0.0,-999.0,92,-99.99,,,0.00,weatherlink.com 1.10,2013-01-03 04:01:00,
2013-01-02 22:16:00,37.3,35.0,30.20,West,271,0.0,-999.0,92,-99.99,,,0.00,weatherlink.com 1.10,2013-01-03 04:16:00,
2013-01-02 22:31:00,37.2,35.0,30.18,SE,131,1.0,-999.0,92,-99.99,,,0.00,weatherlink.com 1.10,2013-01-03 04:31:00,
2013-01-02 22:46:00,37.2,35.0,30.20,SE,131,0.0,-999.0,92,-99.99,,,0.00,weatherlink.com 1.10,2013-01-03 04:46:00,
2013-01-02 23:17:00,37.1,35.0,30.20,WNW,294,1.0,-999.0,92,-99.99,,,0.00,weatherlink.com 1.10,2013-01-03 05:17:00,
2013-01-02 23:32:00,37.1,35.0,30.20,NE,55,0.0,-999.0,92,-99.99,,,0.00,weatherlink.com 1.10,2013-01-03 05:32:00,
2013-01-02 23:47:00,37.0,35.0,30.20,NE,55,0.0,-999.0,92,-99.99,,,0.00,weatherlink.com 1.10,2013-01-03 05:47:00,